TimeEST,TemperatureF,Dew PointF,Humidity,Sea Level PressureIn,VisibilityMPH,Wind Direction,Wind SpeedMPH,Gust SpeedMPH,PrecipitationIn,Events,Conditions,WindDirDegrees,DateUTC
12:54 AM,63.0,57.0,81,29.66,10.0,West,5.8,-,0.00,,Mostly Cloudy,260,2011-11-14 05:54:00
1:54 AM,61.0,57.0,87,29.65,10.0,Calm,Calm,-,0.00,,Clear,0,2011-11-14 06:54:00
2:54 AM,59.0,55.9,90,29.65,10.0,Calm,Calm,-,N/A,,Partly Cloudy,0,2011-11-14 07:54:00
3:11 AM,55.4,53.6,94,29.66,5.0,NNW,3.5,-,N/A,,Mostly Cloudy,340,2011-11-14 08:11:00
3:54 AM,57.9,55.0,90,29.65,10.0,Calm,Calm,-,N/A,,Mostly Cloudy,0,2011-11-14 08:54:00
4:43 AM,57.2,48.2,72,29.66,10.0,North,6.9,-,N/A,,Overcast,360,2011-11-14 09:43:00
4:54 AM,57.0,45.0,64,29.66,10.0,North,6.9,-,N/A,,Overcast,10,2011-11-14 09:54:00
5:43 AM,55.4,39.2,54,29.67,10.0,North,5.8,-,0.00,Rain-Thunderstorm,Light Rain,10,2011-11-14 10:43:00
5:54 AM,54.0,41.0,62,29.67,10.0,Calm,Calm,-,0.01,Rain-Thunderstorm,Rain,0,2011-11-14 10:54:00
6:15 AM,51.8,44.6,76,29.68,8.0,North,4.6,-,0.05,Rain,Light Rain,350,2011-11-14 11:15:00
6:24 AM,50.0,46.4,87,29.68,8.0,Calm,Calm,-,0.07,Rain,Rain,0,2011-11-14 11:24:00
7:54 AM,50.0,44.1,80,29.67,10.0,SE,5.8,-,0.00,Rain,Light Rain,140,2011-11-14 12:54:00
8:54 AM,50.0,45.0,83,29.65,10.0,SE,4.6,-,0.00,Thunderstorm,Overcast,130,2011-11-14 13:54:00
9:03 AM,51.8,44.6,76,29.65,10.0,SE,5.8,-,N/A,,Overcast,140,2011-11-14 14:03:00
9:39 AM,51.8,46.4,82,29.63,10.0,ESE,6.9,-,N/A,,Overcast,120,2011-11-14 14:39:00
9:54 AM,52.0,48.0,86,29.62,10.0,SE,6.9,-,N/A,Thunderstorm,Overcast,130,2011-11-14 14:54:00
10:10 AM,53.6,50.0,88,29.61,10.0,SE,6.9,-,N/A,,Overcast,140,2011-11-14 15:10:00
10:33 AM,55.4,51.8,88,29.60,10.0,SSE,4.6,-,N/A,,Overcast,160,2011-11-14 15:33:00
10:54 AM,57.9,54.0,87,29.57,10.0,SSE,4.6,-,N/A,,Overcast,150,2011-11-14 15:54:00
11:54 AM,66.9,60.1,79,29.54,10.0,SSW,18.4,29.9,N/A,,Overcast,210,2011-11-14 16:54:00
12:54 PM,69.1,61.0,75,29.53,10.0,SSW,17.3,26.5,N/A,,Overcast,200,2011-11-14 17:54:00
1:01 PM,69.8,60.8,73,29.53,10.0,WSW,15.0,31.1,N/A,,Overcast,240,2011-11-14 18:01:00
2:54 PM,71.1,61.0,70,29.49,10.0,SW,16.1,36.8,N/A,,Partly Cloudy,220,2011-11-14 19:54:00
3:08 PM,71.6,60.8,69,29.49,10.0,SSW,16.1,29.9,N/A,Thunderstorm,Mostly Cloudy,210,2011-11-14 20:08:00
3:35 PM,62.6,57.2,82,29.54,10.0,WNW,16.1,26.5,N/A,Thunderstorm,Thunderstorm,300,2011-11-14 20:35:00
3:38 PM,60.8,57.2,88,29.56,1.0,West,29.9,50.6,0.15,Rain-Thunderstorm,Thunderstorms and Rain,280,2011-11-14 20:38:00
3:47 PM,57.2,55.4,94,29.54,0.8,West,16.1,50.6,0.48,Rain-Thunderstorm,Heavy Thunderstorms and Rain,280,2011-11-14 20:47:00
3:54 PM,59.0,55.9,90,29.56,1.2,WNW,9.2,-,0.63,Rain-Thunderstorm,Heavy Thunderstorms and Rain,290,2011-11-14 20:54:00
4:04 PM,57.2,55.4,94,29.57,1.5,North,9.2,-,0.15,Rain-Thunderstorm,Heavy Thunderstorms and Rain,350,2011-11-14 21:04:00
4:09 PM,57.2,55.4,94,29.56,3.0,North,10.4,-,0.16,Rain-Thunderstorm,Thunderstorms and Rain,360,2011-11-14 21:09:00
4:19 PM,57.2,53.6,88,29.57,5.0,NNW,5.8,-,0.19,Rain-Thunderstorm,Light Thunderstorms and Rain,340,2011-11-14 21:19:00
4:52 PM,55.4,53.6,94,29.61,10.0,West,5.8,-,0.19,,Overcast,280,2011-11-14 21:52:00
4:54 PM,55.9,53.1,90,29.61,10.0,West,3.5,-,0.19,,Overcast,280,2011-11-14 21:54:00
5:54 PM,53.1,51.1,93,29.62,10.0,North,4.6,-,N/A,,Clear,360,2011-11-14 22:54:00
6:54 PM,50.0,48.0,93,29.68,10.0,North,5.8,-,N/A,,Clear,10,2011-11-14 23:54:00
7:54 PM,48.9,46.9,93,29.70,10.0,North,3.5,-,N/A,,Clear,350,2011-11-15 00:54:00
8:54 PM,46.9,45.0,93,29.70,4.0,Calm,Calm,-,N/A,,Clear,0,2011-11-15 01:54:00
10:54 PM,48.0,46.0,93,29.74,6.0,Calm,Calm,-,N/A,,Clear,0,2011-11-15 03:54:00